Location: Treviso
(45.6669°N, 12.2430°E)
Time: 21:11:31
(UTC+01:00)

ISS - Pass Details

Date: 14 February 2018
Orbit: 403 x 407 km, 51.6° (Epoch: 20 February)

Event Time Altitude Azimuth Distance (km) Brightness Sun altitude
Rises 18:25:32 0° 286° (WNW) 2,319 1.3 -9.2°
Reaches altitude 10° 18:28:14 10° 262° (W) 1,456 0.7 -9.7°
Maximum altitude 18:30:10 15° 226° (SW) 1,194 -0.6 -10.0°
Drops below altitude 10° 18:32:06 10° 189° (S) 1,450 -0.8 -10.4°
Sets 18:34:48 0° 165° (SSE) 2,305 -0.1 -10.8°
